Torna al catalogo

STARLINK-32713

AttivoComunicazioniVLEO
NORAD 62487·PAYLOAD·🇺🇸 United States

Lanciato Jan 6, 2025 da Cape Canaveral Space Force Station

Loading…

Prossimi Passaggi (prossime 24 ore)

TLE

AggiornatoSource: CelesTrak SupGP

Epoca: Sep 14, 2026, 20:50 UTC

1 62487C 25003A   26257.86854167 -.00021711  00000+0 -78645-3 0  2577
2 62487  43.0002 300.6617 0001637 267.5983  77.8459 15.27585178    18

Traccia STARLINK-32713 in tempo reale con AllMySat

Download on the App Store